Location: *
(37.4917°N, 71.5558°E)
Time: 08:51:31
(UTC+00:00)

USA 238 DEB - Pass Details

Date: 09 April 2020
Orbit: 1017 x 1196 km, 63.4° (Epoch: 02 June)

Event Time Altitude Azimuth Distance (km) Brightness Sun altitude
Exits shadow 21:17:27 53° 26° (NNE) 1,261 4.2 -36.3°
Drops below altitude 10° 21:22:33 10° 32° (NNE) 2,903 6.7 -35.6°
Sets 21:25:15 0° 33° (NNE) 3,887 7.6 -35.3°
